Voltar ao catálogo

SL-14 DEB

AtivoPO
NORAD 45321·DEBRIS·🇷🇺 Russia

Lançado Aug 15, 1991 de Plesetsk Cosmodrome

Loading…

Próximas Passagens (próximas 24 horas)

TLE

AtualizadoSource: Space-Track

Época: Sep 14, 2026, 21:26 UTC

1 45321U 91056BK  26257.89314565  .00000084  00000-0  18026-3 0  9991
2 45321  82.5576  70.8305 0022333 227.3902 132.5339 13.19510357315203

Acompanhe SL-14 DEB em tempo real com AllMySat

Download on the App Store